Location: Alexandria
(38.8050°N, 77.0470°W)
Time: 22:20:41
(UTC-05:00)

Vanguard 1 - Visible Passes

Search period start: 16 January 2018 00:00
Search period end: 26 January 2018 00:00
Orbit: 649 x 3834 km, 34.3° (Epoch: 16 January)

Date Brightness Start Highest point End Pass type
(mag) Time Alt. Az. Time Alt. Az. Time Alt. Az.
16 Jan 13.4 01:13:33 21° E 01:13:33 21° E 01:18:36 10° E visible
16 Jan 12.0 03:26:16 74° SSE 03:26:16 74° SSE 03:47:00 10° ESE visible
16 Jan 12.7 05:38:58 24° W 05:50:47 59° SSW 06:13:31 10° SE visible
17 Jan 13.2 01:33:21 27° E 01:33:21 27° E 01:40:23 10° E visible
17 Jan 12.0 03:46:03 71° SSW 03:47:04 72° S 04:08:39 10° ESE visible
17 Jan 12.9 05:58:46 19° W 06:12:07 52° SSW 06:34:12 10° SE visible
18 Jan 13.0 01:53:10 33° E 01:53:10 33° E 02:02:09 10° E visible
18 Jan 12.0 04:05:52 62° SW 04:08:26 68° SSW 04:30:09 10° ESE visible
18 Jan 13.1 06:18:35 13° W 06:33:22 44° SSW 06:54:31 10° SSE visible
19 Jan 12.8 02:13:00 40° ESE 02:13:00 40° ESE 02:23:55 10° E visible
19 Jan 12.1 04:25:43 52° WSW 04:29:47 63° SSW 04:51:26 10° ESE visible
19 Jan 13.2 06:39:11 10° W 06:54:33 37° SW 07:14:24 10° SSE visible
20 Jan 12.5 02:32:51 46° ESE 02:32:51 46° ESE 02:45:39 10° ESE visible
20 Jan 12.2 04:45:34 42° WSW 04:51:07 56° SSW 05:12:27 10° SE visible
21 Jan 12.3 02:52:44 53° SE 02:52:44 53° SE 03:07:16 10° ESE visible
21 Jan 12.4 05:05:27 34° WSW 05:12:25 48° SSW 05:33:08 10° SE visible
22 Jan 13.7 00:59:56 13° E 00:59:56 13° E 01:01:17 10° E visible
22 Jan 12.2 03:12:39 57° SSE 03:12:39 57° SSE 03:28:45 10° ESE visible
22 Jan 12.6 05:25:22 26° WSW 05:33:41 41° SSW 05:53:25 10° SSE visible
23 Jan 13.5 01:19:52 17° E 01:19:52 17° E 01:22:57 10° E visible
23 Jan 12.1 03:32:35 56° S 03:32:35 56° S 03:50:00 10° SE visible
23 Jan 12.9 05:45:19 19° WSW 05:54:56 33° SSW 06:13:14 10° SSE visible
24 Jan 13.3 01:39:50 21° ESE 01:39:50 21° ESE 01:44:34 10° ESE visible
24 Jan 12.2 03:52:33 51° SSW 03:52:33 51° SSW 04:10:59 10° SE visible
24 Jan 13.1 06:05:17 13° W 06:16:10 26° SW 06:32:24 10° S visible
25 Jan 13.1 01:59:48 26° ESE 01:59:48 26° ESE 02:06:06 10° ESE visible
25 Jan 12.3 04:12:32 43° SSW 04:13:27 44° SSW 04:31:37 10° SE visible
25 Jan 13.3 06:26:56 10° WSW 06:37:24 20° SW 06:50:36 10° S visible
